This is the latest recevied weather packets stored in our database for station/object WD7OO. If no packets are shown the sender has not sent any weather packets the latest 10 day(s).
| Time | Temp. | Humidity | Pressure | Rain* | Wind** | Luminosity | Snow |
|---|---|---|---|---|---|---|---|
| 1778030240 | 9.44° C | 76% | 1009.2 hPa | 0 mm | - | 0 W/m² | - |
| 1778029936 | 9.44° C | 77% | 1009.4 hPa | 0 mm | - | 0 W/m² | - |
| 1778029635 | 9.44° C | 73% | 1009.2 hPa | 0 mm | - | 0 W/m² | - |
| 1778029331 | 9.44° C | 74% | 1009 hPa | 0 mm | - | 0 W/m² | - |
| 1778029029 | 9.44° C | 75% | 1009.2 hPa | 0 mm | - | 0 W/m² | - |
| 1778028726 | 9.44° C | 74% | 1009 hPa | 0 mm | - | 0 W/m² | - |
| 1778028421 | 10° C | 72% | 1009.1 hPa | 0 mm | - | 0 W/m² | - |
| 1778028119 | 10° C | 68% | 1008.8 hPa | 0 mm | - | 0 W/m² | - |
| 1778027815 | 10° C | 69% | 1008.9 hPa | 0 mm | - | 1 W/m² | - |
| 1778027511 | 10° C | 71% | 1008.7 hPa | 0 mm | - | 2 W/m² | - |
| 1778027207 | 10° C | 70% | 1008.8 hPa | 0 mm | - | 3 W/m² | - |
| 1778026904 | 10.56° C | 68% | 1009 hPa | 0 mm | - | 5 W/m² | - |
| 1778026599 | 10.56° C | 66% | 1009.1 hPa | 0 mm | - | 9 W/m² | - |
| 1778026297 | 10.56° C | 67% | 1008.9 hPa | 0 mm | - | 11 W/m² | - |
| 1778025994 | 10.56° C | 62% | 1008.8 hPa | 0 mm | - | 14 W/m² | - |
| 1778025691 | 10.56° C | 58% | 1008.9 hPa | 0 mm | - | 22 W/m² | - |
| 1778025389 | 10.56° C | 61% | 1008.8 hPa | 0 mm | - | 23 W/m² | - |
| 1778025086 | 10.56° C | 54% | 1008.9 hPa | 0 mm | - | 30 W/m² | - |
| 1778024783 | 11.11° C | 61% | 1009.1 hPa | 0 mm | - | 36 W/m² | - |
| 1778024479 | 11.11° C | 63% | 1009.1 hPa | 0 mm | - | 52 W/m² | - |
| 1778024177 | 11.11° C | 59% | 1009.2 hPa | 0 mm | - | 50 W/m² | - |
| 1778023875 | 11.11° C | 55% | 1009.2 hPa | 0 mm | - | 53 W/m² | - |
| 1778023572 | 11.11° C | 60% | 1009 hPa | 0 mm | - | 78 W/m² | - |
| 1778023270 | 11.11° C | 62% | 1009.2 hPa | 0 mm | - | 84 W/m² | - |
| 1778022966 | 11.11° C | 58% | 1009.2 hPa | 0 mm | - | 59 W/m² | - |
* Rain latest hour (hover to see other rain measurements)
** Current wind speed in m/s (hover to see current wind gust speed)